Torna al catalogo

STARLINK-34896

AttivoComunicazioniVLEO
NORAD 66288·PAYLOAD·🇺🇸 United States

Lanciato Oct 31, 2025 da Vandenberg Space Force Base

Loading…

Prossimi Passaggi (prossime 24 ore)

TLE

AggiornatoSource: CelesTrak SupGP

Epoca: Sep 14, 2026, 20:54 UTC

1 66288C 25247Z   26257.87131944  .00042347  00000+0  12516-2 0  2572
2 66288  53.1602  28.3409 0001241  79.8555 143.3990 15.34357476    17

Traccia STARLINK-34896 in tempo reale con AllMySat

Download on the App Store